This demonstration page uses our WeatherBlox Daily Observations layout. Learn more.

38.89511, -77.03637

Hourly Observations for July 14, 2017

Temp ( °F °C ) Dew Point ( °F °C ) Humidity (%) Winds ( mph kmh ) Pressure ( in mb ) Visibility ( mi km ) Precip ( " mm )
12:52 am 00:52 Mostly Cloudy 86 30 70 21.1 59 59 NNW 5 7 30 1016 10 16.09344 0 0
1:52 am 01:52 Mostly Cloudy 85 29.4 70 21.1 61 61 N 5 7 30 1016 10 16.09344 0 0
2:52 am 02:52 Mostly Cloudy 83 28.3 79 26.1 88 88 S 6 9 30 1016 10 16.09344 0 0
3:52 am 03:52 Mostly Cloudy 81 27.2 76 24.4 85 85 S 6 9 30 1016 10 16.09344 0 0
4:52 am 04:52 Clear 80 26.7 75 23.9 85 85 S 8 13 30 1016 10 16.09344 0 0
5:22 am 05:22 Mostly Clear 79 26.1 75 23.9 88 88 S 6 9 30.03 1017 10 16.09344 0 0
5:52 am 05:52 Mostly Cloudy 79 26.1 76 24.4 90 90 S 7 11 30 1016 10 16.09344 0 0
6:52 am 06:52 Cloudy 79 26.1 76 24.4 90 90 S 3 6 30 1016 10 16.09344 0 0
7:52 am 07:52 Mostly Cloudy 81 27.2 77 25 88 88 S 7 11 30 1016 10 16.09344 0 0
8:52 am 08:52 Mostly Cloudy 83 28.3 78 25.6 85 85 S 7 11 30 1016 10 16.09344 0 0
9:52 am 09:52 Mostly Cloudy 86 30 78 25.6 77 77 S 8 13 30 1016 10 16.09344 0 0
10:52 am 10:52 Sunny 89 31.7 78 25.6 70 70 S 12 19 30 1016 10 16.09344 0 0
11:52 am 11:52 Mostly Cloudy 90 32.2 78 25.6 68 68 SSE 9 15 30 1016 10 16.09344 0 0
12:52 pm 12:52 Mostly Cloudy 92 33.3 78 25.6 64 64 S 10 17 29.97 1015 10 16.09344 0 0
1:52 pm 13:52 Mostly Cloudy 97 36.1 71 21.7 43 43 W 16 26 29.94 1014 10 16.09344 0 0
2:52 pm 14:52 Mostly Cloudy 94 34.4 75 23.9 54 54 S 10 17 29.91 1013 10 16.09344 0 0
3:52 pm 15:52 Mostly Cloudy 94 34.4 76 24.4 56 56 S 10 17 29.91 1013 10 16.09344 0 0
4:28 pm 16:28 Mostly Cloudy with Thunderstorms 94 34.4 74 23.3 52 52 SSW 10 17 29.91 1013 10 16.09344 0 0
4:37 pm 16:37 Mostly Cloudy with Thunderstorms 92 33.3 73 22.8 54 54 WNW 30 48 29.94 1014 10 16.09344 0 0
4:44 pm 16:44 Windy with Storms Likely 83 28.3 71 21.7 67 67 NW 33 54 29.97 1015 10 16.09344 0.001 0.001
4:49 pm 16:49 Mostly Cloudy with Heavy Thunderstorms 81 27 72 22 74 74 NW 36 57 29.97 1015 1.5 2.414016 0.001 0.001
4:52 pm 16:52 Cloudy with Heavy Thunderstorms 78 25.6 73 22.8 85 85 NW 35 56 29.97 1015 1 1.609344 0.001 0.001
4:55 pm 16:55 Cloudy with Heavy Thunderstorms 76 24.4 72 22.2 88 88 N 37 59 29.97 1015 0.75 1.207008 0.02 0.508
5:02 pm 17:02 Cloudy with Heavy Thunderstorms 75 23.9 70 21.1 84 84 NE 35 56 29.97 1015 1.75 2.816352 0.2 5.08
5:08 pm 17:08 Cloudy with Heavy Thunderstorms 76 24.4 69 20.6 79 79 NNE 18 30 29.97 1015 2.5 4.02336 0.28 7.112
5:15 pm 17:15 Cloudy with Heavy Thunderstorms 74 23.3 70 21.1 88 88 NE 10 17 29.97 1015 5 8.04672 0.42 10.668
5:34 pm 17:34 Cloudy with Heavy Thunderstorms 73 22.8 71 21.7 94 94 SSE 3 6 29.97 1015 6 9.656064 0.64 16.256
5:52 pm 17:52 Cloudy with Light Thunderstorms 74 23.3 72 22.2 94 94 SSW 5 7 29.94 1014 9 14.484096 0.68 17.272
6:17 pm 18:17 Cloudy with Light Rain 76 24.4 73 22.8 91 91 N 6 9 29.94 1014 10 16.09344 0.01 0.254
6:21 pm 18:21 Cloudy with Light Thunderstorms 77 25 72 22.2 85 85 NW 9 15 29.94 1014 10 16.09344 0.01 0.254
6:41 pm 18:41 Cloudy with Light Rain 76 24.4 73 22.8 91 91 N 6 9 29.94 1014 8 12.874752 0.03 0.762
6:52 pm 18:52 Cloudy with Light Rain 77 25 73 22.8 88 88 N 3 6 29.94 1014 9 14.484096 0.04 1.016
7:52 pm 19:52 Cloudy 77 25 73 22.8 88 88 SSW 3 6 29.94 1014 10 16.09344 0.01 0.254
8:52 pm 20:52 Mostly Cloudy 77 25 73 22.8 88 88 ESE 6 9 29.94 1014 10 16.09344 0 0
9:52 pm 21:52 Mostly Cloudy 76 24.4 74 23.3 94 94 ESE 3 6 29.97 1015 10 16.09344 0 0
10:52 pm 22:52 Mostly Cloudy 77 25 73 22.8 88 88 SSE 7 11 29.94 1014 10 16.09344 0 0
11:43 pm 23:43 Partly Cloudy 76 24.4 75 23.9 97 97 SSW 6 9 29.97 1015 9 14.484096 0 0
11:52 pm 23:52 Partly Cloudy 76 24.4 74 23.3 94 94 SSW 5 7 29.94 1014 10 16.09344 0 0

Powered by AerisWeather